Station Historical Data
Daily Summary for June 21, 2012 Units:  English    Metric   Both
« Previous Day
Next Day »
Daily Weekly Monthly Yearly Custom
  High: Low: Average:
Temperature: 89.2 °F 66.1 °F 78.6 °F
Dew Point: 71.0 °F 63.1 °F 65.9 °F
Humidity: 93% 44% 67%
Wind Speed: 8.0mph 0.0mph 1.2mph
Wind Gust: 10.0mph - -
Wind- - SW
Pressure: 30.05 in 29.87 in -
Precipitation: 0.00 in    
Historical Graphs
 
 
Tabular Data for June 21, 2012
Time Temperature Dew Point Pressure Wind Wind Speed Wind Gust Humidity Rainfall Rate (Hourly) Conditions
00:00 72.8 °F 66.3 °F 30.00 in Calm     80% 0.00 in
00:01 72.7 °F 66.2 °F 30.00 in Calm     80% 0.00 in
00:06 72.3 °F 66.2 °F 30.00 in Calm     81% 0.00 in
00:11 71.9 °F 66.5 °F 30.00 in NE 1.0 mph 1.0 mph 83% 0.00 in
00:16 71.9 °F 66.5 °F 30.00 in NE 1.0 mph 1.0 mph 83% 0.00 in
00:21 72.3 °F 66.5 °F 30.00 in Calm   1.0 mph 82% 0.00 in
00:26 72.2 °F 66.1 °F 30.00 in Calm     81% 0.00 in
00:31 71.8 °F 66.0 °F 30.00 in Calm     82% 0.00 in
00:36 71.9 °F 66.1 °F 30.00 in Calm   1.0 mph 82% 0.00 in
00:41 72.1 °F 65.9 °F 30.00 in ENE 1.0 mph 1.0 mph 81% 0.00 in
00:46 72.4 °F 65.9 °F 30.00 in SE 1.0 mph 2.0 mph 80% 0.00 in
00:51 72.5 °F 66.0 °F 30.00 in SSE 1.0 mph 2.0 mph 80% 0.00 in
00:56 72.5 °F 66.0 °F 30.00 in SSE 1.0 mph 1.0 mph 80% 0.00 in
01:01 72.6 °F 65.7 °F 30.00 in SE 1.0 mph 1.0 mph 79% 0.00 in
01:06 73.0 °F 65.7 °F 30.00 in SE 1.0 mph 1.0 mph 78% 0.00 in
01:11 73.1 °F 65.8 °F 30.00 in Calm   1.0 mph 78% 0.00 in
01:16 73.0 °F 65.4 °F 30.00 in Calm     77% 0.00 in
01:21 72.9 °F 65.7 °F 30.00 in Calm   1.0 mph 78% 0.00 in
01:26 72.5 °F 65.6 °F 30.00 in Calm     79% 0.00 in
01:31 71.7 °F 65.2 °F 30.00 in Calm   1.0 mph 80% 0.00 in
01:36 71.8 °F 65.3 °F 30.00 in Calm     80% 0.00 in
01:41 71.8 °F 65.3 °F 30.00 in Calm     80% 0.00 in
01:46 71.6 °F 65.5 °F 30.00 in Calm     81% 0.00 in
01:51 71.3 °F 65.2 °F 30.00 in Calm     81% 0.00 in
01:56 70.9 °F 65.1 °F 30.00 in Calm     82% 0.00 in
02:01 70.6 °F 64.8 °F 30.00 in Calm     82% 0.00 in
02:06 70.4 °F 64.7 °F 30.00 in Calm     82% 0.00 in
02:11 70.2 °F 64.8 °F 30.00 in Calm     83% 0.00 in
02:16 69.9 °F 64.8 °F 30.00 in Calm     84% 0.00 in
02:21 69.9 °F 64.8 °F 30.00 in Calm     84% 0.00 in
02:26 69.9 °F 64.8 °F 30.00 in Calm     84% 0.00 in
02:32 70.0 °F 64.9 °F 30.00 in Calm     84% 0.00 in
02:37 70.1 °F 65.1 °F 30.00 in Calm     84% 0.00 in
02:42 70.1 °F 65.1 °F 30.00 in Calm     84% 0.00 in
02:47 70.2 °F 65.5 °F 30.00 in Calm     85% 0.00 in
02:52 70.2 °F 65.5 °F 30.00 in Calm     85% 0.00 in
02:57 70.2 °F 65.5 °F 30.00 in Calm     85% 0.00 in
03:02 70.3 °F 65.9 °F 30.00 in Calm     86% 0.00 in
03:07 70.2 °F 65.5 °F 30.00 in Calm     85% 0.00 in
03:12 70.2 °F 65.8 °F 30.00 in Calm     86% 0.00 in
03:17 70.2 °F 65.8 °F 30.00 in Calm     86% 0.00 in
03:22 70.1 °F 65.7 °F 30.00 in Calm     86% 0.00 in
03:27 70.0 °F 65.6 °F 30.00 in Calm     86% 0.00 in
03:32 70.0 °F 65.6 °F 30.00 in Calm     86% 0.00 in
03:37 69.9 °F 65.9 °F 30.00 in Calm   1.0 mph 87% 0.00 in
03:42 69.7 °F 65.7 °F 30.00 in SE 1.0 mph 1.0 mph 87% 0.00 in
03:47 69.5 °F 65.8 °F 30.00 in Calm     88% 0.00 in
03:52 69.3 °F 65.9 °F 30.00 in SE 1.0 mph 1.0 mph 89% 0.00 in
03:57 69.0 °F 65.9 °F 30.00 in Calm   1.0 mph 90% 0.00 in
04:02 68.8 °F 65.8 °F 30.00 in ESE 1.0 mph 1.0 mph 90% 0.00 in
04:07 68.6 °F 65.6 °F 30.00 in Calm   1.0 mph 90% 0.00 in
04:12 68.4 °F 65.4 °F 30.00 in Calm     90% 0.00 in
04:17 68.2 °F 65.2 °F 30.00 in Calm     90% 0.00 in
04:22 68.1 °F 65.1 °F 30.00 in ESE 1.0 mph 1.0 mph 90% 0.00 in
04:27 68.2 °F 65.5 °F 30.00 in Calm   1.0 mph 91% 0.00 in
04:32 68.1 °F 65.4 °F 30.00 in Calm     91% 0.00 in
04:37 67.9 °F 65.2 °F 30.00 in Calm     91% 0.00 in
04:42 67.7 °F 65.0 °F 30.00 in Calm     91% 0.00 in
04:47 67.6 °F 64.9 °F 30.00 in Calm     91% 0.00 in
04:52 67.6 °F 65.2 °F 30.01 in Calm     92% 0.00 in
04:57 67.5 °F 65.1 °F 30.01 in Calm     92% 0.00 in
05:02 67.5 °F 65.1 °F 30.01 in Calm     92% 0.00 in
05:07 67.4 °F 65.0 °F 30.01 in Calm     92% 0.00 in
05:12 67.3 °F 64.9 °F 30.01 in Calm     92% 0.00 in
05:17 67.2 °F 64.8 °F 30.01 in Calm     92% 0.00 in
05:22 67.4 °F 65.0 °F 30.01 in Calm     92% 0.00 in
05:27 67.3 °F 64.6 °F 30.02 in Calm     91% 0.00 in
05:32 67.1 °F 64.4 °F 30.01 in Calm     91% 0.00 in
05:37 67.1 °F 64.7 °F 30.01 in Calm     92% 0.00 in
05:42 67.3 °F 64.9 °F 30.01 in Calm     92% 0.00 in
05:47 67.4 °F 65.0 °F 30.01 in Calm     92% 0.00 in
05:52 67.3 °F 64.9 °F 30.01 in Calm     92% 0.00 in
05:57 67.1 °F 64.7 °F 30.01 in Calm     92% 0.00 in
06:02 67.0 °F 64.6 °F 30.02 in Calm     92% 0.00 in
06:08 66.7 °F 64.3 °F 30.02 in Calm     92% 0.00 in
06:13 66.4 °F 64.0 °F 30.02 in Calm     92% 0.00 in
06:18 66.3 °F 63.9 °F 30.02 in Calm     92% 0.00 in
06:23 66.4 °F 64.3 °F 30.02 in Calm     93% 0.00 in
06:28 66.3 °F 64.2 °F 30.02 in Calm     93% 0.00 in
06:33 66.2 °F 64.1 °F 30.02 in Calm     93% 0.00 in
06:38 66.2 °F 64.1 °F 30.02 in Calm     93% 0.00 in
06:43 66.1 °F 64.0 °F 30.03 in Calm     93% 0.00 in
06:48 66.2 °F 64.1 °F 30.02 in Calm     93% 0.00 in
06:53 66.2 °F 64.1 °F 30.02 in Calm     93% 0.00 in
06:58 66.2 °F 64.1 °F 30.02 in Calm     93% 0.00 in
07:03 66.3 °F 64.2 °F 30.03 in Calm     93% 0.00 in
07:08 66.6 °F 64.5 °F 30.03 in Calm     93% 0.00 in
07:13 67.0 °F 64.9 °F 30.03 in Calm     93% 0.00 in
07:18 67.7 °F 65.6 °F 30.03 in Calm     93% 0.00 in
07:23 68.4 °F 66.0 °F 30.03 in Calm     92% 0.00 in
07:28 68.7 °F 66.0 °F 30.03 in Calm     91% 0.00 in
07:33 69.2 °F 66.5 °F 30.03 in Calm     91% 0.00 in
07:38 69.6 °F 66.5 °F 30.03 in Calm     90% 0.00 in
07:43 69.8 °F 66.7 °F 30.03 in Calm     90% 0.00 in
07:48 70.7 °F 67.6 °F 30.03 in Calm     90% 0.00 in
07:53 71.9 °F 68.8 °F 30.03 in Calm     90% 0.00 in
07:58 73.4 °F 69.6 °F 30.03 in Calm     88% 0.00 in
08:03 74.4 °F 70.3 °F 30.03 in Calm     87% 0.00 in
08:08 75.5 °F 71.0 °F 30.03 in Calm     86% 0.00 in
08:14 75.9 °F 70.7 °F 30.04 in Calm     84% 0.00 in
08:19 76.1 °F 70.6 °F 30.04 in Calm     83% 0.00 in
08:24 76.3 °F 69.7 °F 30.04 in Calm     80% 0.00 in
08:29 76.3 °F 68.6 °F 30.04 in Calm     77% 0.00 in
08:34 77.0 °F 69.2 °F 30.04 in Calm     77% 0.00 in
08:39 77.2 °F 68.3 °F 30.04 in Calm     74% 0.00 in
08:44 77.9 °F 67.8 °F 30.05 in Calm     71% 0.00 in
08:49 78.0 °F 66.6 °F 30.04 in Calm     68% 0.00 in
08:54 77.8 °F 65.5 °F 30.04 in WNW 2.0 mph 2.0 mph 66% 0.00 in
08:59 77.9 °F 66.5 °F 30.04 in West 2.0 mph 3.0 mph 68% 0.00 in
09:04 77.9 °F 66.5 °F 30.04 in NW 2.0 mph 3.0 mph 68% 0.00 in
09:09 77.9 °F 66.5 °F 30.04 in WNW 2.0 mph 4.0 mph 68% 0.00 in
09:14 77.9 °F 66.5 °F 30.04 in WNW 2.0 mph 4.0 mph 68% 0.00 in
09:19 78.2 °F 67.2 °F 30.04 in West 3.0 mph 3.0 mph 69% 0.00 in
09:24 78.4 °F 66.6 °F 30.04 in NW 3.0 mph 4.0 mph 67% 0.00 in
09:29 78.5 °F 66.6 °F 30.04 in Calm   4.0 mph 67% 0.00 in
09:34 78.8 °F 66.9 °F 30.04 in NW 2.0 mph 3.0 mph 67% 0.00 in
09:39 79.0 °F 67.1 °F 30.04 in NW 3.0 mph 3.0 mph 67% 0.00 in
09:44 79.3 °F 67.4 °F 30.03 in NW 1.0 mph 3.0 mph 67% 0.00 in
09:49 79.8 °F 67.9 °F 30.03 in NW 2.0 mph 2.0 mph 67% 0.00 in
09:54 80.0 °F 67.6 °F 30.03 in WSW 1.0 mph 3.0 mph 66% 0.00 in
09:59 80.7 °F 67.8 °F 30.03 in SE 1.0 mph 3.0 mph 65% 0.00 in
10:04 81.0 °F 67.7 °F 30.04 in NW 2.0 mph 3.0 mph 64% 0.00 in
10:09 80.9 °F 67.1 °F 30.04 in Calm   3.0 mph 63% 0.00 in
10:14 81.2 °F 66.9 °F 30.03 in Calm   4.0 mph 62% 0.00 in
10:19 81.3 °F 67.1 °F 30.03 in NW 2.0 mph 4.0 mph 62% 0.00 in
10:24 81.4 °F 68.1 °F 30.03 in WNW 3.0 mph 4.0 mph 64% 0.00 in
10:29 81.6 °F 67.3 °F 30.03 in WSW 1.0 mph 2.0 mph 62% 0.00 in
10:34 81.9 °F 68.1 °F 30.03 in NW 3.0 mph 3.0 mph 63% 0.00 in
10:39 82.1 °F 66.8 °F 30.03 in Calm   3.0 mph 60% 0.00 in
10:44 82.5 °F 67.2 °F 30.03 in NW 4.0 mph 4.0 mph 60% 0.00 in
10:49 82.3 °F 66.1 °F 30.03 in West 3.0 mph 5.0 mph 58% 0.00 in
10:54 82.5 °F 66.2 °F 30.03 in NW 3.0 mph 5.0 mph 58% 0.00 in
10:59 82.3 °F 64.5 °F 30.03 in Calm   3.0 mph 55% 0.00 in
11:04 82.5 °F 65.2 °F 30.02 in NW 2.0 mph 5.0 mph 56% 0.00 in
11:09 82.7 °F 65.9 °F 30.02 in SSW 3.0 mph 4.0 mph 57% 0.00 in
11:14 83.1 °F 65.3 °F 30.02 in SW 2.0 mph 4.0 mph 55% 0.00 in
11:19 83.4 °F 65.0 °F 30.02 in WSW 4.0 mph 5.0 mph 54% 0.00 in
11:24 83.7 °F 65.3 °F 30.02 in West 3.0 mph 5.0 mph 54% 0.00 in
11:29 83.5 °F 64.6 °F 30.02 in Calm   4.0 mph 53% 0.00 in
11:34 83.8 °F 65.4 °F 30.02 in WNW 2.0 mph 5.0 mph 54% 0.00 in
11:40 83.7 °F 64.2 °F 30.02 in Calm   6.0 mph 52% 0.00 in
11:45 84.1 °F 65.1 °F 30.02 in ENE 1.0 mph 3.0 mph 53% 0.00 in
11:50 84.6 °F 66.1 °F 30.02 in SSW 4.0 mph 4.0 mph 54% 0.00 in
11:55 85.0 °F 65.4 °F 30.02 in SE 1.0 mph 2.0 mph 52% 0.00 in
12:00 85.5 °F 66.4 °F 30.02 in NE 1.0 mph 2.0 mph 53% 0.00 in
12:05 85.6 °F 66.0 °F 30.02 in WSW 1.0 mph 3.0 mph 52% 0.00 in
12:10 85.9 °F 66.2 °F 30.02 in ENE 3.0 mph 3.0 mph 52% 0.00 in
12:15 85.7 °F 67.2 °F 30.01 in NE 3.0 mph 4.0 mph 54% 0.00 in
12:20 85.2 °F 65.1 °F 30.01 in East 2.0 mph 5.0 mph 51% 0.00 in
12:25 85.7 °F 66.6 °F 30.01 in NNE 2.0 mph 3.0 mph 53% 0.00 in
12:30 86.4 °F 65.6 °F 30.01 in WNW 4.0 mph 6.0 mph 50% 0.00 in
12:35 85.0 °F 64.3 °F 30.01 in NW 3.0 mph 6.0 mph 50% 0.00 in
12:40 84.6 °F 65.6 °F 30.01 in West 1.0 mph 5.0 mph 53% 0.00 in
12:45 83.9 °F 64.4 °F 30.01 in NW 2.0 mph 3.0 mph 52% 0.00 in
12:50 83.6 °F 65.2 °F 30.01 in NW 2.0 mph 3.0 mph 54% 0.00 in
12:55 83.7 °F 64.8 °F 30.01 in WNW 3.0 mph 4.0 mph 53% 0.00 in
13:00 83.8 °F 64.3 °F 30.01 in WNW 1.0 mph 3.0 mph 52% 0.00 in
13:05 83.9 °F 65.5 °F 30.01 in Calm     54% 0.00 in
13:10 84.7 °F 65.1 °F 30.00 in NNW 1.0 mph 3.0 mph 52% 0.00 in
13:15 85.4 °F 65.8 °F 30.00 in ENE 1.0 mph 2.0 mph 52% 0.00 in
13:20 86.0 °F 64.6 °F 30.00 in West 2.0 mph 2.0 mph 49% 0.00 in
13:25 86.0 °F 64.6 °F 30.00 in WSW 4.0 mph 5.0 mph 49% 0.00 in
13:30 86.4 °F 64.4 °F 30.00 in SE 1.0 mph 3.0 mph 48% 0.00 in
13:35 87.1 °F 64.4 °F 29.99 in SE 1.0 mph 2.0 mph 47% 0.00 in
13:40 86.3 °F 63.1 °F 29.99 in Calm   2.0 mph 46% 0.00 in
13:45 86.3 °F 63.7 °F 29.99 in WSW 3.0 mph 3.0 mph 47% 0.00 in
13:50 85.6 °F 64.8 °F 29.99 in WNW 1.0 mph 3.0 mph 50% 0.00 in
13:55 85.9 °F 64.0 °F 29.98 in NNW 1.0 mph 6.0 mph 48% 0.00 in
14:00 86.2 °F 65.4 °F 29.98 in SW 1.0 mph 4.0 mph 50% 0.00 in
14:05 86.8 °F 64.8 °F 29.98 in West 3.0 mph 3.0 mph 48% 0.00 in
14:10 86.7 °F 64.7 °F 29.97 in Calm   1.0 mph 48% 0.00 in
14:15 87.0 °F 66.7 °F 29.97 in WSW 2.0 mph 4.0 mph 51% 0.00 in
14:20 87.2 °F 63.9 °F 29.97 in SSE 3.0 mph 5.0 mph 46% 0.00 in
14:25 86.8 °F 64.8 °F 29.97 in WSW 3.0 mph 4.0 mph 48% 0.00 in
14:30 86.1 °F 64.7 °F 29.97 in WSW 1.0 mph 3.0 mph 49% 0.00 in
14:35 85.8 °F 65.0 °F 29.96 in SE 1.0 mph 3.0 mph 50% 0.00 in
14:40 86.0 °F 65.2 °F 29.96 in SW 5.0 mph 5.0 mph 50% 0.00 in
14:45 86.7 °F 66.4 °F 29.96 in ENE 1.0 mph 1.0 mph 51% 0.00 in
14:50 87.7 °F 65.6 °F 29.95 in SSE 2.0 mph 3.0 mph 48% 0.00 in
14:55 87.6 °F 65.5 °F 29.95 in ESE 3.0 mph 4.0 mph 48% 0.00 in
15:00 87.7 °F 65.6 °F 29.94 in Calm   1.0 mph 48% 0.00 in
15:05 88.0 °F 65.3 °F 29.94 in Calm   2.0 mph 47% 0.00 in
15:10 88.4 °F 64.4 °F 29.93 in East 3.0 mph 3.0 mph 45% 0.00 in
15:16 88.3 °F 65.5 °F 29.93 in Calm   4.0 mph 47% 0.00 in
15:20 88.1 °F 64.7 °F 29.93 in NNE 2.0 mph 4.0 mph 46% 0.00 in
15:25 88.4 °F 65.0 °F 29.93 in South 2.0 mph 8.0 mph 46% 0.00 in
15:30 88.8 °F 64.7 °F 29.92 in SW 4.0 mph 4.0 mph 45% 0.00 in
15:35 88.8 °F 65.4 °F 29.92 in ENE 1.0 mph 9.0 mph 46% 0.00 in
15:40 88.8 °F 65.4 °F 29.92 in WSW 2.0 mph 6.0 mph 46% 0.00 in
15:46 89.2 °F 65.1 °F 29.92 in SE 6.0 mph 6.0 mph 45% 0.00 in
15:51 88.9 °F 65.5 °F 29.92 in SE 8.0 mph 8.0 mph 46% 0.00 in
15:56 87.7 °F 65.0 °F 29.91 in SE 8.0 mph 8.0 mph 47% 0.00 in
16:01 86.8 °F 64.2 °F 29.91 in ESE 8.0 mph 10.0 mph 47% 0.00 in
16:06 87.1 °F 66.2 °F 29.91 in WSW 2.0 mph 6.0 mph 50% 0.00 in
16:11 87.7 °F 66.8 °F 29.91 in SSE 2.0 mph 6.0 mph 50% 0.00 in
16:16 88.2 °F 65.4 °F 29.91 in South 3.0 mph 6.0 mph 47% 0.00 in
16:21 88.4 °F 66.2 °F 29.90 in West 3.0 mph 5.0 mph 48% 0.00 in
16:26 88.4 °F 65.6 °F 29.90 in SSE 3.0 mph 6.0 mph 47% 0.00 in
16:31 88.8 °F 66.6 °F 29.89 in SE 3.0 mph 7.0 mph 48% 0.00 in
16:36 88.5 °F 66.3 °F 29.89 in ESE 6.0 mph 9.0 mph 48% 0.00 in
16:41 88.3 °F 65.5 °F 29.89 in SSE 4.0 mph 5.0 mph 47% 0.00 in
16:46 88.9 °F 67.9 °F 29.89 in SSE 4.0 mph 6.0 mph 50% 0.00 in
16:51 89.1 °F 64.4 °F 29.89 in SSE 2.0 mph 5.0 mph 44% 0.00 in
16:56 88.8 °F 64.7 °F 29.88 in SE 7.0 mph 7.0 mph 45% 0.00 in
17:01 88.7 °F 66.5 °F 29.88 in South 4.0 mph 7.0 mph 48% 0.00 in
17:06 88.6 °F 64.6 °F 29.89 in SSE 4.0 mph 7.0 mph 45% 0.00 in
17:11 88.8 °F 65.4 °F 29.88 in SSW 3.0 mph 3.0 mph 46% 0.00 in
17:16 88.9 °F 64.8 °F 29.88 in WSW 1.0 mph 7.0 mph 45% 0.00 in
17:21 88.8 °F 64.7 °F 29.88 in SE 2.0 mph 6.0 mph 45% 0.00 in
17:26 88.6 °F 66.4 °F 29.88 in ESE 7.0 mph 8.0 mph 48% 0.00 in
17:31 88.4 °F 65.6 °F 29.88 in SSE 1.0 mph 6.0 mph 47% 0.00 in
17:36 88.7 °F 67.1 °F 29.88 in SSE 5.0 mph 6.0 mph 49% 0.00 in
17:41 88.8 °F 66.6 °F 29.88 in SSE 5.0 mph 9.0 mph 48% 0.00 in
17:46 88.6 °F 65.8 °F 29.87 in South 6.0 mph 8.0 mph 47% 0.00 in
17:51 88.9 °F 66.1 °F 29.88 in SW 5.0 mph 7.0 mph 47% 0.00 in
17:56 88.8 °F 65.4 °F 29.88 in South 4.0 mph 6.0 mph 46% 0.00 in
18:01 88.8 °F 64.7 °F 29.88 in SW 3.0 mph 7.0 mph 45% 0.00 in
18:06 88.9 °F 64.8 °F 29.87 in SW 2.0 mph 5.0 mph 45% 0.00 in
18:11 88.9 °F 65.5 °F 29.87 in SW 3.0 mph 4.0 mph 46% 0.00 in
18:16 88.9 °F 66.1 °F 29.87 in Calm   5.0 mph 47% 0.00 in
18:21 89.2 °F 65.7 °F 29.87 in SSE 3.0 mph 5.0 mph 46% 0.00 in
18:26 89.2 °F 65.7 °F 29.87 in SSE 1.0 mph 3.0 mph 46% 0.00 in
18:31 88.9 °F 65.5 °F 29.88 in SW 1.0 mph 4.0 mph 46% 0.00 in
18:36 88.7 °F 65.9 °F 29.87 in WSW 3.0 mph 4.0 mph 47% 0.00 in
18:41 88.5 °F 65.1 °F 29.87 in WSW 3.0 mph 4.0 mph 46% 0.00 in
18:46 88.3 °F 66.1 °F 29.87 in WSW 3.0 mph 3.0 mph 48% 0.00 in
18:52 88.5 °F 65.7 °F 29.87 in WNW 1.0 mph 2.0 mph 47% 0.00 in
18:56 88.5 °F 65.1 °F 29.87 in WNW 1.0 mph 4.0 mph 46% 0.00 in
19:02 88.6 °F 65.2 °F 29.87 in Calm   2.0 mph 46% 0.00 in
19:07 88.6 °F 65.2 °F 29.87 in WNW 1.0 mph 4.0 mph 46% 0.00 in
19:12 88.6 °F 67.0 °F 29.88 in NW 2.0 mph 2.0 mph 49% 0.00 in
19:17 88.5 °F 64.5 °F 29.87 in West 1.0 mph 2.0 mph 45% 0.00 in
19:22 88.8 °F 65.4 °F 29.88 in WSW 2.0 mph 2.0 mph 46% 0.00 in
19:27 88.7 °F 65.3 °F 29.87 in WSW 2.0 mph 3.0 mph 46% 0.00 in
19:32 88.1 °F 66.6 °F 29.88 in West 2.0 mph 4.0 mph 49% 0.00 in
19:37 87.7 °F 66.2 °F 29.88 in WNW 2.0 mph 3.0 mph 49% 0.00 in
19:42 87.6 °F 65.5 °F 29.88 in WNW 2.0 mph 3.0 mph 48% 0.00 in
19:47 87.6 °F 65.5 °F 29.88 in WNW 2.0 mph 3.0 mph 48% 0.00 in
19:52 87.3 °F 65.8 °F 29.88 in WNW 3.0 mph 4.0 mph 49% 0.00 in
19:57 86.9 °F 66.0 °F 29.88 in NW 2.0 mph 4.0 mph 50% 0.00 in
20:02 86.6 °F 66.9 °F 29.88 in WNW 1.0 mph 3.0 mph 52% 0.00 in
20:07 86.4 °F 66.7 °F 29.89 in WNW 1.0 mph 2.0 mph 52% 0.00 in
20:12 86.4 °F 66.7 °F 29.88 in Calm   2.0 mph 52% 0.00 in
20:17 86.3 °F 66.6 °F 29.88 in NW 1.0 mph 1.0 mph 52% 0.00 in
20:22 86.0 °F 66.9 °F 29.88 in NW 1.0 mph 1.0 mph 53% 0.00 in
20:27 85.6 °F 67.1 °F 29.88 in NW 1.0 mph 1.0 mph 54% 0.00 in
20:32 85.0 °F 68.1 °F 29.88 in Calm   1.0 mph 57% 0.00 in
20:37 84.2 °F 68.3 °F 29.88 in NW 1.0 mph 1.0 mph 59% 0.00 in
20:42 83.4 °F 68.1 °F 29.88 in Calm   1.0 mph 60% 0.00 in
20:47 82.8 °F 67.5 °F 29.88 in Calm   1.0 mph 60% 0.00 in
20:52 82.2 °F 67.9 °F 29.88 in Calm     62% 0.00 in
20:57 81.6 °F 67.8 °F 29.88 in Calm     63% 0.00 in
21:02 80.8 °F 67.5 °F 29.88 in Calm     64% 0.00 in
21:07 80.1 °F 66.8 °F 29.88 in Calm     64% 0.00 in
21:12 79.3 °F 66.1 °F 29.89 in Calm     64% 0.00 in
21:17 78.7 °F 66.0 °F 29.89 in Calm     65% 0.00 in
21:22 78.3 °F 66.0 °F 29.89 in Calm     66% 0.00 in
21:27 77.7 °F 66.3 °F 29.89 in Calm     68% 0.00 in
21:32 77.3 °F 66.3 °F 29.89 in Calm     69% 0.00 in
21:37 77.0 °F 65.6 °F 29.89 in Calm     68% 0.00 in
21:42 76.7 °F 66.6 °F 29.89 in Calm     71% 0.00 in
21:47 76.2 °F 66.1 °F 29.89 in Calm     71% 0.00 in
21:52 75.8 °F 66.1 °F 29.89 in Calm     72% 0.00 in
21:57 75.4 °F 66.9 °F 29.89 in Calm     75% 0.00 in
22:02 75.1 °F 67.4 °F 29.89 in Calm     77% 0.00 in
22:07 74.9 °F 67.2 °F 29.89 in Calm     77% 0.00 in
22:12 74.5 °F 66.8 °F 29.89 in Calm     77% 0.00 in
22:17 74.3 °F 67.0 °F 29.90 in Calm     78% 0.00 in
22:22 74.6 °F 66.9 °F 29.90 in Calm     77% 0.00 in
22:27 74.8 °F 67.1 °F 29.90 in Calm   1.0 mph 77% 0.00 in
22:32 74.8 °F 66.7 °F 29.90 in Calm   1.0 mph 76% 0.00 in
22:37 74.9 °F 66.4 °F 29.90 in NW 1.0 mph 1.0 mph 75% 0.00 in
22:42 75.2 °F 66.3 °F 29.90 in NNW 1.0 mph 2.0 mph 74% 0.00 in
22:47 75.6 °F 65.9 °F 29.90 in Calm   1.0 mph 72% 0.00 in
22:53 75.8 °F 66.1 °F 29.90 in Calm     72% 0.00 in
22:58 75.7 °F 65.6 °F 29.90 in Calm   1.0 mph 71% 0.00 in
23:03 75.9 °F 65.8 °F 29.90 in NNW 1.0 mph 1.0 mph 71% 0.00 in
23:08 75.9 °F 65.8 °F 29.90 in Calm   1.0 mph 71% 0.00 in
23:13 75.5 °F 65.8 °F 29.90 in Calm     72% 0.00 in
23:18 74.9 °F 66.4 °F 29.90 in Calm     75% 0.00 in
23:23 74.1 °F 65.7 °F 29.91 in Calm   1.0 mph 75% 0.00 in
23:28 74.3 °F 65.9 °F 29.91 in Calm   1.0 mph 75% 0.00 in
23:33 74.0 °F 66.3 °F 29.91 in Calm     77% 0.00 in
23:38 73.3 °F 65.7 °F 29.91 in Calm     77% 0.00 in
23:43 72.9 °F 65.3 °F 29.91 in Calm   1.0 mph 77% 0.00 in
23:48 73.4 °F 65.8 °F 29.91 in NNW 1.0 mph 1.0 mph 77% 0.00 in
23:53 73.8 °F 65.4 °F 29.91 in Calm   1.0 mph 75% 0.00 in
23:58 73.8 °F 65.4 °F 29.91 in Calm     75% 0.00 in
Compliments of Weather Underground